Location: Unspecified
(51.0950°N, 12.9690°E)
Time: 22:10:26
(UTC+00:00)

NOSS 2-3 (D) - Pass Details

Date: 28 October 2021
Orbit: 538 x 1672 km, 63.3° (Epoch: 25 November)

Event Time Altitude Azimuth Distance (km) Brightness Sun altitude
Rises 17:01:46 0° 224° (SW) 2,703 7.7 -11.9°
Reaches altitude 10° 17:03:49 10° 224° (SW) 1,852 6.8 -12.2°
Maximum altitude 17:07:53 87° 311° (NW) 629 3.6 -12.8°
Enters shadow 17:12:31 12° 44° (NE) 2,118 5.9 -13.6°
